This is the latest recevied weather packets stored in our database for station/object KO6SRA-13. If no packets are shown the sender has not sent any weather packets the latest 10 day(s).
| Time | Temp. | Humidity | Pressure | Rain* | Wind** | Luminosity | Snow |
|---|---|---|---|---|---|---|---|
| 1787703721 | 20.56° C | 73% | 1016.9 hPa | 0 mm | - | 312 W/m² | - |
| 1787703417 | 20.56° C | 74% | 1016.9 hPa | 0 mm | - | 309 W/m² | - |
| 1787703112 | 20.56° C | 74% | 1016.8 hPa | 0 mm | - | 321 W/m² | - |
| 1787702808 | 20° C | 75% | 1016.8 hPa | 0 mm | - | 320 W/m² | - |
| 1787702503 | 20° C | 75% | 1016.8 hPa | 0 mm | - | 340 W/m² | - |
| 1787702198 | 20° C | 75% | 1016.8 hPa | 0 mm | - | 336 W/m² | - |
| 1787701893 | 20° C | 74% | 1016.9 hPa | 0 mm | - | 375 W/m² | - |
| 1787701589 | 20° C | 74% | 1016.8 hPa | 0 mm | - | 393 W/m² | - |
| 1787701284 | 20° C | 75% | 1017 hPa | 0 mm | - | 418 W/m² | - |
| 1787700980 | 20° C | 74% | 1017.1 hPa | 0 mm | - | 433 W/m² | - |
| 1787700675 | 20° C | 74% | 1017.1 hPa | 0 mm | - | 445 W/m² | - |
| 1787700372 | 20.56° C | 72% | 1017 hPa | 0 mm | - | 453 W/m² | - |
| 1787700067 | 20.56° C | 72% | 1016.9 hPa | 0 mm | - | 472 W/m² | - |
| 1787699763 | 20.56° C | 72% | 1017.1 hPa | 0 mm | - | 482 W/m² | - |
| 1787699458 | 20.56° C | 71% | 1017.1 hPa | 0 mm | - | 501 W/m² | - |
| 1787699154 | 20.56° C | 72% | 1017.2 hPa | 0 mm | - | 481 W/m² | - |
| 1787698849 | 20.56° C | 72% | 1017.3 hPa | 0 mm | - | 422 W/m² | - |
| 1787698545 | 20.56° C | 72% | 1017.4 hPa | 0 mm | - | 411 W/m² | - |
| 1787698241 | 20.56° C | 72% | 1017.6 hPa | 0 mm | - | 436 W/m² | - |
| 1787697937 | 21.11° C | 71% | 1017.4 hPa | 0 mm | - | 453 W/m² | - |
| 1787697636 | 21.11° C | 69% | 1017.5 hPa | 0 mm | - | 445 W/m² | - |
| 1787697332 | 21.11° C | 70% | 1017.5 hPa | 0 mm | - | 463 W/m² | - |
| 1787697027 | 21.11° C | 70% | 1017.5 hPa | 0 mm | - | 540 W/m² | - |
| 1787696723 | 21.11° C | 71% | 1017.6 hPa | 0 mm | - | 570 W/m² | - |
| 1787696419 | 21.11° C | 69% | 1017.7 hPa | 0 mm | - | 593 W/m² | - |
* Rain latest hour (hover to see other rain measurements)
** Current wind speed in m/s (hover to see current wind gust speed)